Location: Rancho Del Sol Observatory
(38.7214°N, 120.6350°W)
Time: 07:02:14
(UTC-08:00)

Vanguard 3 - Visible Passes

Search period start: 27 January 2020 00:00
Search period end: 06 February 2020 00:00
Orbit: 507 x 3264 km, 33.4° (Epoch: 26 January)

Date Brightness Start Highest point End Pass type
(mag) Time Alt. Az. Time Alt. Az. Time Alt. Az.
27 Jan 10.1 18:05:49 10° WSW 18:25:46 72° S 18:39:40 17° E visible
27 Jan 9.4 20:22:48 10° W 20:41:53 67° SSW 20:44:14 61° SSE visible
27 Jan 10.6 22:41:15 10° W 22:48:48 26° WSW 22:48:48 26° WSW visible
28 Jan 9.9 19:05:23 10° W 19:25:26 73° S 19:34:28 34° ESE visible
28 Jan 9.8 21:23:04 10° W 21:39:02 51° SW 21:39:02 51° SW visible
28 Jan 11.2 23:43:11 10° W 23:43:36 11° W 23:43:36 11° W visible
29 Jan 10.2 17:48:38 10° WSW 18:08:24 74° S 18:24:43 12° E visible
29 Jan 9.6 20:05:19 10° W 20:24:45 65° SSW 20:29:18 51° SE visible
29 Jan 10.5 22:23:49 10° W 22:33:52 30° WSW 22:33:52 30° WSW visible
30 Jan 10.0 18:48:07 10° W 19:08:08 73° S 19:19:35 25° ESE visible
30 Jan 9.8 21:05:33 10° W 21:23:22 50° SSW 21:24:10 50° SSW visible
30 Jan 11.1 23:26:15 10° W 23:28:46 13° W 23:28:46 13° W visible
31 Jan 10.3 17:31:35 10° WSW 17:50:58 74° S 18:08:40 10° E visible
31 Jan 9.9 19:47:56 10° W 20:07:29 63° SSW 20:14:31 40° SE visible
31 Jan 10.4 22:06:27 10° W 22:19:06 32° SW 22:19:06 32° SW visible
01 Feb 10.2 18:30:57 10° W 18:50:46 72° S 19:04:56 18° ESE visible
01 Feb 10.0 20:48:07 10° W 21:06:06 48° SSW 21:09:31 43° S visible
01 Feb 11.1 23:09:29 10° W 23:14:07 15° WSW 23:14:07 15° WSW visible
02 Feb 10.4 17:14:40 10° W 17:33:32 75° S 17:51:58 10° E visible
02 Feb 10.1 19:30:39 10° W 19:50:08 61° SSW 19:59:59 29° SE visible
02 Feb 10.5 21:49:09 10° W 22:03:51 30° SW 22:04:35 30° SW visible
03 Feb 10.3 18:13:54 10° W 18:33:20 70° SSW 18:50:32 10° ESE visible
03 Feb 10.2 20:30:47 10° W 20:48:44 45° SW 20:55:08 33° S visible
03 Feb 11.1 22:52:59 10° W 22:59:44 15° WSW 22:59:44 15° WSW visible
04 Feb 10.3 19:13:28 10° W 19:32:40 58° SSW 19:45:46 19° SE visible
04 Feb 10.6 21:32:00 10° W 21:46:30 28° SW 21:50:23 26° SSW visible
05 Feb 10.4 17:56:58 10° W 18:15:51 68° SSW 18:33:49 10° ESE visible
05 Feb 10.5 20:13:34 10° W 20:31:16 42° SW 20:41:06 23° SSE visible
05 Feb 11.1 22:36:58 10° WSW 22:43:36 13° SW 22:45:44 13° SW visible
